Weather History for Grand Junction, CO

Change the Weather History Date:

Tuesday, March 5, 2013

  Actual Average Record
Temperature  
Mean Temperature 35 °F 41 °F  
Max Temperature 50 °F 53 °F 70 °F (1910)
Min Temperature 20 °F 29 °F 5 °F (1939)
Degree Days  
Heating Degree Days 30 24  
Month to date heating degree days 128 122  
Since 1 July heating degree days 4891 4501  
Cooling Degree Days 0 0  
Month to date cooling degree days 0 0  
Year to date cooling degree days 0 0  
Moisture  
Dew Point 12 °F    
Average Humidity 46    
Maximum Humidity 73    
Minimum Humidity 19    
Precipitation  
Precipitation 0.00 in 0.03 in 0.57 in (1944)
Month to date precipitation 0.05 0.13  
Year to date precipitation 1.05 1.25  
Snow  
Snow 0.00 in 0.10 in 3.50 in (1944)
Month to date snowfall 0.0 0.4  
Since 1 July snowfall 20.0 15.9  
Snow Depth 0.00 in    
Sea Level Pressure  
Sea Level Pressure 30.26 in    
Wind  
Wind Speed 7 mph (ESE)    
Max Wind Speed 20 mph    
Max Gust Speed 25 mph    
Visibility 10 miles    
Events      
T = Trace of Precipitation, MM = Missing Value Source: NWS Daily Summary

Daily Weather History Graph

Daily Weather History Graph

Search for Another Location

Airport:

Trip Planner

Search our weather history database for the weather conditions in past years. The results will help you decide how hot, cold, wet, or windy it might be!

Date:

Astronomy

Mar. 05, 2013 Rise Set
Actual Time 6:40 AM MST 6:11 PM MST
Civil Twilight 6:13 AM MST 6:38 PM MST
Nautical Twilight 5:42 AM MST 7:09 PM MST
Astronomical Twilight 5:11 AM MST 7:40 PM MST
Moon 1:53 AM MST (3/5) 11:55 AM MST (3/5)
Length of Visible Light 12h 24m
Length of Day
11h 30m
Last Quarter, 40% of the Moon is Illuminated
Mar 5
Last Quarter
Mar 11
New
Mar 19
First Quarter
Mar 27
Full
Apr 2
Last Quarter

Hourly Weather History & Observations

Time (MST) Temp. Windchill Dew Point Humidity Pressure Visibility Wind Dir Wind Speed Gust Speed Precip Events Conditions
12:53 AM 28.0 °F 20.8 °F 12.0 °F 51% 30.27 in 10.0 mi ESE 6.9 mph - N/A   Clear
1:53 AM 26.1 °F 20.5 °F 14.0 °F 60% 30.28 in 10.0 mi South 4.6 mph - N/A   Clear
2:53 AM 24.1 °F 12.5 °F 14.0 °F 65% 30.29 in 10.0 mi East 12.7 mph - N/A   Clear
3:53 AM 26.1 °F 15.6 °F 12.0 °F 55% 30.30 in 10.0 mi ENE 11.5 mph - N/A   Clear
4:53 AM 23.0 °F 11.7 °F 12.0 °F 63% 30.35 in 10.0 mi ESE 11.5 mph - N/A   Clear
5:53 AM 21.2 °F 11.7 °F 12.2 °F 68% 30.33 in 10.0 mi SE 8.1 mph - N/A   Clear
6:53 AM 19.9 °F 8.6 °F 12.9 °F 74% 30.42 in 10.0 mi SE 10.4 mph - N/A   Clear
7:53 AM 28.9 °F 17.7 °F 10.9 °F 47% 30.39 in 10.0 mi East 15.0 mph - N/A   Clear
8:53 AM 32.0 °F 20.8 °F 10.9 °F 42% 30.38 in 10.0 mi SE 17.3 mph 20.7 mph N/A   Clear
9:53 AM 35.1 °F 25.5 °F 9.0 °F 34% 30.37 in 10.0 mi East 15.0 mph - N/A   Clear
10:53 AM 39.0 °F 31.4 °F 7.0 °F 27% 30.34 in 10.0 mi East 12.7 mph 23.0 mph N/A   Clear
11:53 AM 42.1 °F 37.1 °F 9.0 °F 26% 30.32 in 10.0 mi SSE 8.1 mph - N/A   Clear
12:53 PM 44.1 °F 42.5 °F 9.0 °F 24% 30.27 in 10.0 mi ESE 3.5 mph - N/A   Clear
1:53 PM 46.9 °F - 9.0 °F 21% 30.23 in 10.0 mi WSW 4.6 mph - N/A   Clear
2:53 PM 48.9 °F - 9.0 °F 20% 30.20 in 10.0 mi Variable 3.5 mph - N/A   Clear
3:53 PM 48.0 °F - 12.0 °F 24% 30.17 in 10.0 mi NW 3.5 mph - N/A   Clear
4:53 PM 48.0 °F - 12.9 °F 24% 30.16 in 10.0 mi WNW 4.6 mph - N/A   Clear
5:53 PM 46.0 °F - 12.9 °F 26% 30.16 in 10.0 mi Calm Calm - N/A   Clear
6:53 PM 36.0 °F - 16.0 °F 44% 30.19 in 10.0 mi Calm Calm - N/A   Clear
7:53 PM 33.1 °F - 17.1 °F 52% 30.17 in 10.0 mi Calm Calm - N/A   Clear
8:53 PM 30.0 °F - 16.0 °F 56% 30.18 in 10.0 mi Calm Calm - N/A   Clear
9:53 PM 32.0 °F 28.7 °F 15.1 °F 50% 30.16 in 10.0 mi East 3.5 mph - N/A   Clear
10:53 PM 30.9 °F 23.5 °F 17.1 °F 57% 30.15 in 10.0 mi SE 8.1 mph - N/A   Clear
11:53 PM 28.9 °F 21.9 °F 17.1 °F 61% 30.13 in 10.0 mi ESE 6.9 mph - N/A   Clear